Location: Mount Kobau Star Party
(49.1167°N, 119.7333°W)
Time: 11:52:51
(UTC-08:00)

Tiangong 1 - Visible Passes

Search period start: 15 December 2017 00:00
Search period end: 25 December 2017 00:00
Orbit: 275 x 301 km, 42.8° (Epoch: 15 December)

Date Brightness Start Highest point End Pass type
(mag) Time Alt. Az. Time Alt. Az. Time Alt. Az.
22 Dec 3.5 05:51:36 11° S 05:52:32 12° SSE 05:53:38 10° SE visible
23 Dec 3.1 05:55:01 14° S 05:55:39 15° SSE 05:57:15 10° SE visible
24 Dec 2.8 05:58:13 17° S 05:58:41 18° S 06:00:29 10° SE visible
